Key West, FL

3:08 PM EDT on July 21, 2017 (GMT -0400)
Key West International

Weather History for KEYW - September, 2014

Change the Weather History Date:

Monday, September 29, 2014

  Actual Average Record
Temperature  
Mean Temperature 85 °F 82 °F  
Max Temperature 87 °F 87 °F 92 °F (1958)
Min Temperature 82 °F 78 °F 71 °F (1949)
Degree Days  
Heating Degree Days 0 0  
Month to date heating degree days 0 0  
Since 1 July heating degree days 0 0  
Cooling Degree Days 20 17  
Month to date cooling degree days 547 530  
Year to date cooling degree days 4067 3719  
Growing Degree Days 34 (Base 50)    
Moisture  
Dew Point 76 °F    
Average Humidity 77    
Maximum Humidity 85    
Minimum Humidity 68    
Precipitation  
Precipitation 0.00 in 0.22 in 3.15 in (1994)
Month to date precipitation 5.42 6.50  
Year to date precipitation 27.56 30.17  
Snow  
Snow 0.00 in - - ()
Month to date snowfall 0.0  
Since 1 July snowfall 0.0  
Since 1 September snowfall 0.0  
Snow Depth 0.00 in    
Sea Level Pressure  
Sea Level Pressure 29.89 in    
Wind  
Wind Speed 6 mph (ESE)    
Max Wind Speed 12 mph    
Max Gust Speed 16 mph    
Visibility 10 miles    
Events      
T = Trace of Precipitation, MM = Missing Value Source: NWS Daily Summary

Daily Weather History Graph

Daily Weather History Graph

Search for Another Location

Airport or City:

Trip Planner

Search our weather history database for the weather conditions in past years. The results will help you decide how hot, cold, wet, or windy it might be!

Date:

Astronomy

Sep. 29, 2014 Rise Set
Actual Time 7:18 AM EDT 7:16 PM EDT
Civil Twilight 6:55 AM EDT 7:38 PM EDT
Nautical Twilight 6:29 AM EDT 8:05 PM EDT
Astronomical Twilight 6:02 AM EDT 8:31 PM EDT
Moon 12:01 PM EDT (9/29) 11:16 PM EDT (9/29)
Length of Visible Light 12h 43m
Length of Day
11h 57m
Waxing Crescent, 27% of the Moon is Illuminated
Sep 29
Waxing Crescent
Oct 1
First Quarter
Oct 8
Full
Oct 15
Last Quarter
Oct 23
New

Hourly Weather History & Observations

Time (EDT) Temp. Heat Index Dew Point Humidity Pressure Visibility Wind Dir Wind Speed Gust Speed Precip Events Conditions
12:53 AM 84.0 °F 91.9 °F 75.0 °F 74% 29.93 in 10.0 mi ENE 6.9 mph - N/A   Partly Cloudy
1:53 AM 82.9 °F 90.2 °F 75.0 °F 77% 29.91 in 10.0 mi East 9.2 mph - N/A   Clear
2:53 AM 82.9 °F 90.2 °F 75.0 °F 77% 29.90 in 10.0 mi ENE 5.8 mph - N/A   Partly Cloudy
3:53 AM 82.4 °F 89.5 °F 75.2 °F 79% 29.89 in 10.0 mi ESE 8.1 mph - N/A   Partly Cloudy
4:53 AM 82.9 °F 90.2 °F 75.0 °F 77% 29.88 in 10.0 mi East 5.8 mph - N/A   Partly Cloudy
5:53 AM 82.9 °F 90.2 °F 75.0 °F 77% 29.90 in 10.0 mi East 8.1 mph - N/A   Partly Cloudy
6:53 AM 82.0 °F 88.6 °F 75.0 °F 79% 29.90 in 10.0 mi East 4.6 mph - N/A   Clear
7:53 AM 82.0 °F 90.2 °F 77.0 °F 85% 29.91 in 10.0 mi Calm Calm - N/A   Partly Cloudy
8:39 AM 84.9 °F 96.6 °F 78.1 °F 80% 29.91 in 10.0 mi ENE 5.8 mph - N/A   Mostly Cloudy
8:53 AM 84.9 °F 95.3 °F 77.0 °F 77% 29.92 in 10.0 mi East 5.8 mph - N/A   Mostly Cloudy
9:00 AM 84.9 °F 95.3 °F 77.0 °F 77% 29.92 in 10.0 mi East 5.8 mph - N/A   Scattered Clouds
9:53 AM 86.0 °F 96.9 °F 77.0 °F 74% 29.92 in 10.0 mi ESE 10.4 mph - N/A   Partly Cloudy
10:53 AM 86.0 °F 96.0 °F 75.9 °F 72% 29.92 in 10.0 mi ESE 8.1 mph - N/A   Clear
11:53 AM 87.1 °F 98.8 °F 77.0 °F 72% 29.92 in 10.0 mi SE 8.1 mph - N/A   Clear
12:53 PM 87.1 °F 97.3 °F 75.9 °F 69% 29.91 in 10.0 mi SSE 8.1 mph - N/A   Partly Cloudy
1:53 PM 87.1 °F 97.3 °F 75.9 °F 69% 29.88 in 10.0 mi South 8.1 mph - N/A   Partly Cloudy
2:53 PM 87.1 °F 97.3 °F 75.9 °F 69% 29.86 in 10.0 mi South 9.2 mph - N/A   Clear
3:53 PM 86.0 °F 95.1 °F 75.0 °F 70% 29.86 in 10.0 mi SW 8.1 mph - N/A   Partly Cloudy
4:53 PM 86.0 °F 95.1 °F 75.0 °F 70% 29.85 in 10.0 mi SW 8.1 mph - N/A   Clear
5:53 PM 86.0 °F 95.1 °F 75.0 °F 70% 29.86 in 10.0 mi WSW 6.9 mph - N/A   Clear
6:53 PM 84.9 °F 92.1 °F 73.9 °F 69% 29.85 in 10.0 mi West 4.6 mph - N/A   Clear
7:53 PM 84.9 °F 93.3 °F 75.0 °F 72% 29.87 in 10.0 mi NW 5.8 mph - N/A   Clear
8:53 PM 84.9 °F 94.1 °F 75.9 °F 74% 29.89 in 10.0 mi West 3.5 mph - N/A   Clear
9:53 PM 84.0 °F 92.6 °F 75.9 °F 76% 29.89 in 10.0 mi NNW 4.6 mph - N/A   Clear
10:53 PM 82.9 °F 90.2 °F 75.0 °F 77% 29.89 in 10.0 mi Calm Calm - N/A   Clear
11:53 PM 82.9 °F 90.2 °F 75.0 °F 77% 29.89 in 10.0 mi Calm Calm - N/A   Clear